Total_Precipitation_Accumulation
0.05 0.11 0.30 0.39 0.41 0.43 0.47 0.49 0.50 0.48 0.47 0.51 0.55 0.61 0.62 0.64 0.63 0.61 0.62 0.62 0.66 0.75 0.82 0.92 0.97 0.98 0.89 0.75 0.69 0.61 0.53 0.46 0.44 0.43 0.47 0.55 0.60 0.56 0.47 0.40 0.32 0.43 0.63
0.08 0.12 0.28 0.34 0.38 0.40 0.44 0.46 0.48 0.48 0.48 0.51 0.52 0.59 0.62 0.63 0.65 0.66 0.69 0.67 0.71 0.78 0.82 0.92 0.94 0.93 0.85 0.72 0.66 0.56 0.48 0.42 0.35 0.31 0.30 0.35 0.51 0.57 0.49 0.44 0.43 0.62 0.71
0.06 0.12 0.24 0.32 0.37 0.41 0.43 0.44 0.45 0.46 0.48 0.53 0.54 0.59 0.63 0.65 0.66 0.71 0.74 0.75 0.76 0.81 0.85 0.89 0.86 0.84 0.80 0.74 0.71 0.63 0.50 0.45 0.35 0.26 0.22 0.23 0.40 0.58 0.57 0.51 0.52 0.71 0.74
0.05 0.10 0.19 0.31 0.38 0.43 0.45 0.45 0.45 0.47 0.49 0.54 0.58 0.61 0.65 0.66 0.68 0.71 0.73 0.75 0.75 0.78 0.86 0.88 0.86 0.86 0.83 0.80 0.71 0.60 0.50 0.44 0.33 0.23 0.14 0.18 0.41 0.67 0.65 0.59 0.56 0.68 0.73
0.05 0.10 0.19 0.33 0.41 0.49 0.51 0.50 0.50 0.53 0.56 0.61 0.62 0.66 0.70 0.72 0.74 0.75 0.72 0.70 0.68 0.67 0.71 0.73 0.80 0.86 0.86 0.81 0.73 0.63 0.53 0.44 0.30 0.18 0.12 0.22 0.46 0.71 0.65 0.62 0.62 0.67 0.70
0.09 0.13 0.23 0.36 0.47 0.55 0.57 0.55 0.54 0.58 0.63 0.68 0.72 0.74 0.78 0.85 0.85 0.82 0.77 0.76 0.68 0.64 0.65 0.68 0.74 0.84 0.84 0.77 0.73 0.72 0.71 0.56 0.32 0.16 0.15 0.22 0.35 0.60 0.69 0.78 0.80 0.74 0.69
0.14 0.21 0.29 0.43 0.56 0.62 0.65 0.64 0.62 0.66 0.69 0.73 0.76 0.80 0.85 0.90 0.91 0.85 0.81 0.77 0.75 0.72 0.70 0.70 0.73 0.82 0.81 0.74 0.72 0.72 0.76 0.57 0.32 0.25 0.18 0.18 0.30 0.56 0.84 0.97 1.01 0.88 0.78
0.17 0.24 0.37 0.58 0.65 0.68 0.74 0.75 0.73 0.76 0.79 0.81 0.83 0.89 0.93 0.94 0.95 0.94 0.88 0.79 0.79 0.79 0.76 0.75 0.77 0.79 0.75 0.70 0.67 0.67 0.64 0.45 0.36 0.38 0.32 0.31 0.43 0.71 0.92 1.11 1.09 0.93 0.85
0.27 0.35 0.44 0.63 0.73 0.80 0.88 0.92 0.89 0.90 0.91 0.90 0.92 0.96 1.00 1.00 0.99 0.97 0.93 0.85 0.82 0.81 0.85 0.82 0.78 0.73 0.68 0.65 0.65 0.64 0.55 0.40 0.35 0.49 0.45 0.56 0.54 0.76 0.90 1.05 1.13 1.04 0.92
0.39 0.45 0.52 0.65 0.76 0.86 0.97 1.05 1.09 1.08 1.07 1.09 1.09 1.00 0.99 1.08 1.12 1.08 0.97 0.91 0.90 0.87 0.88 0.90 0.82 0.72 0.65 0.62 0.59 0.58 0.50 0.39 0.30 0.41 0.66 0.63 0.57 0.88 1.02 1.04 1.11 1.09 1.03
0.52 0.57 0.67 0.74 0.82 0.91 0.99 1.07 1.24 1.35 1.35 1.30 1.29 1.16 1.14 1.15 1.13 1.10 1.00 0.95 0.90 0.91 0.86 0.93 0.95 0.85 0.76 0.68 0.64 0.56 0.47 0.35 0.30 0.39 0.49 0.50 0.63 0.90 1.16 1.20 1.19 1.13 1.04
0.51 0.61 0.73 0.87 0.93 1.05 1.10 1.17 1.29 1.41 1.46 1.39 1.17 1.18 1.24 1.13 1.09 1.04 1.05 1.07 0.99 0.96 0.95 0.93 0.96 0.92 0.83 0.70 0.67 0.60 0.42 0.32 0.31 0.27 0.28 0.35 0.56 0.87 1.12 1.27 1.34 1.30 1.16
0.51 0.63 0.76 0.95 1.11 1.21 1.21 1.19 1.22 1.31 1.40 1.41 1.22 1.07 1.10 1.14 1.14 1.17 1.09 1.13 1.12 1.06 1.09 1.04 1.01 0.91 0.80 0.73 0.70 0.62 0.45 0.36 0.32 0.27 0.25 0.31 0.44 0.68 0.96 1.21 1.35 1.42 1.38
0.56 0.68 0.83 0.99 1.17 1.30 1.35 1.30 1.22 1.23 1.29 1.33 1.30 1.22 1.13 1.12 1.05 1.02 1.02 0.97 0.96 0.93 0.95 0.98 0.90 0.83 0.76 0.72 0.68 0.63 0.56 0.46 0.36 0.34 0.28 0.32 0.38 0.49 0.70 0.93 1.12 1.34 1.47
0.59 0.71 0.91 1.07 1.19 1.36 1.48 1.44 1.35 1.27 1.18 1.25 1.33 1.40 1.27 1.11 1.02 1.01 0.98 0.96 0.91 0.86 0.83 0.83 0.77 0.73 0.70 0.66 0.64 0.61 0.56 0.48 0.41 0.39 0.33 0.35 0.37 0.42 0.56 0.76 0.95 1.23 1.52
0.60 0.73 0.96 1.13 1.23 1.40 1.48 1.44 1.39 1.36 1.28 1.33 1.36 1.35 1.40 1.32 1.14 1.10 1.08 0.99 0.94 0.89 0.84 0.80 0.75 0.71 0.68 0.63 0.58 0.52 0.52 0.52 0.48 0.47 0.42 0.40 0.38 0.38 0.47 0.66 0.85 1.07 1.42
0.61 0.76 0.98 1.15 1.31 1.44 1.44 1.44 1.44 1.40 1.41 1.38 1.35 1.34 1.43 1.42 1.38 1.26 1.20 1.11 1.00 0.97 0.96 0.90 0.85 0.77 0.74 0.67 0.61 0.55 0.50 0.50 0.47 0.48 0.48 0.45 0.45 0.41 0.43 0.56 0.70 0.90 1.15
0.70 0.76 0.93 1.15 1.28 1.42 1.47 1.45 1.43 1.43 1.43 1.44 1.43 1.39 1.39 1.47 1.50 1.51 1.38 1.25 1.11 1.09 1.07 1.04 0.96 0.90 0.80 0.73 0.69 0.63 0.55 0.51 0.47 0.46 0.45 0.46 0.49 0.48 0.46 0.50 0.56 0.72 0.95
0.73 0.79 0.92 1.10 1.21 1.33 1.51 1.56 1.48 1.44 1.48 1.54 1.54 1.51 1.42 1.49 1.57 1.63 1.63 1.49 1.34 1.27 1.19 1.09 0.99 0.92 0.87 0.81 0.77 0.72 0.63 0.57 0.52 0.52 0.47 0.41 0.42 0.47 0.49 0.50 0.53 0.59 0.77
0.79 0.86 0.95 1.08 1.24 1.32 1.55 1.71 1.72 1.58 1.53 1.55 1.55 1.48 1.49 1.54 1.56 1.56 1.60 1.63 1.56 1.49 1.38 1.24 1.11 0.95 0.85 0.83 0.85 0.86 0.76 0.65 0.60 0.58 0.56 0.49 0.41 0.41 0.47 0.51 0.53 0.55 0.64
0.85 0.89 0.99 1.03 1.21 1.35 1.49 1.66 1.70 1.63 1.53 1.50 1.45 1.41 1.39 1.46 1.53 1.54 1.45 1.50 1.55 1.52 1.43 1.34 1.24 1.15 1.01 0.90 0.95 1.02 1.00 0.82 0.69 0.63 0.62 0.61 0.53 0.45 0.44 0.48 0.54 0.58 0.61
0.88 0.88 0.98 1.08 1.19 1.25 1.34 1.46 1.59 1.62 1.57 1.52 1.46 1.46 1.39 1.37 1.42 1.52 1.53 1.44 1.43 1.44 1.43 1.36 1.29 1.23 1.17 1.02 0.97 1.04 1.08 1.07 0.85 0.65 0.61 0.60 0.59 0.56 0.51 0.48 0.51 0.58 0.63
0.88 0.90 0.94 1.07 1.19 1.25 1.37 1.49 1.62 1.81 1.79 1.72 1.58 1.48 1.39 1.36 1.34 1.37 1.47 1.50 1.42 1.37 1.36 1.33 1.26 1.18 1.15 1.05 0.89 1.00 1.08 0.96 0.81 0.67 0.61 0.55 0.53 0.57 0.56 0.51 0.50 0.50 0.58
0.80 0.91 0.96 1.10 1.21 1.25 1.42 1.54 1.51 1.63 1.67 1.53 1.39 1.38 1.36 1.32 1.32 1.29 1.31 1.38 1.43 1.37 1.28 1.24 1.25 1.21 1.19 1.17 1.00 0.85 0.85 0.80 0.83 0.73 0.65 0.62 0.58 0.56 0.56 0.54 0.51 0.48 0.50
0.74 0.87 0.96 1.10 1.24 1.29 1.36 1.52 1.54 1.46 1.46 1.49 1.46 1.40 1.42 1.40 1.34 1.28 1.26 1.29 1.32 1.31 1.22 1.16 1.19 1.22 1.21 1.17 1.08 0.91 0.80 0.70 0.68 0.78 0.67 0.62 0.69 0.66 0.60 0.60 0.58 0.54 0.51
0.73 0.85 0.96 1.06 1.17 1.26 1.30 1.43 1.57 1.50 1.41 1.42 1.47 1.47 1.45 1.48 1.43 1.31 1.21 1.22 1.21 1.19 1.16 1.08 1.08 1.09 1.10 1.11 1.05 0.96 0.92 0.88 0.74 0.75 0.72 0.59 0.60 0.64 0.66 0.68 0.69 0.65 0.59